Worland, WY

5:07 AM MST on February 10, 2016 (GMT -0700)
Worland Municipal

Weather History for KWRL - June, 2013

Change the Weather History Date:

Saturday, June 29, 2013

  Actual Average Record
Temperature  
Mean Temperature 79 °F 69 °F  
Max Temperature 95 °F 85 °F 101 °F (1984)
Min Temperature 62 °F 52 °F 39 °F (1995)
Degree Days  
Heating Degree Days 0 1  
Month to date heating degree days 45 91  
Since 1 June heating degree days 45 91  
Since 1 July heating degree days 7466 7867  
Cooling Degree Days 14 5  
Month to date cooling degree days 120 78  
Year to date cooling degree days 137 90  
Since 1 June cooling degree days 120 78  
Growing Degree Days 28 (Base 50)    
Moisture  
Dew Point 47 °F    
Average Humidity 34    
Maximum Humidity 53    
Minimum Humidity 15    
Precipitation  
Precipitation 0.00 in 0.03 in 0.24 in (1964)
Month to date precipitation 0.09 1.13  
Year to date precipitation 2.78 4.29  
Sea Level Pressure  
Sea Level Pressure 30.01 in    
Wind  
Wind Speed 6 mph (NW)    
Max Wind Speed 25 mph    
Max Gust Speed 35 mph    
Visibility 10 miles    
Events      
T = Trace of Precipitation, MM = Missing Value Source: NWS Daily Summary

Daily Weather History Graph

Daily Weather History Graph

Search for Another Location

Airport or City:

Trip Planner

Search our weather history database for the weather conditions in past years. The results will help you decide how hot, cold, wet, or windy it might be!

Date:

Astronomy

Jun. 29, 2013 Rise Set
Actual Time 5:32 AM MDT 8:58 PM MDT
Civil Twilight 4:55 AM MDT 9:34 PM MDT
Nautical Twilight 4:08 AM MDT 10:21 PM MDT
Astronomical Twilight 3:08 AM MDT 11:21 PM MDT
Moon 12:14 AM MDT (6/29) 1:02 PM MDT (6/29)
Length of Visible Light 16h 38m
Length of Day
15h 26m
Waning Gibbous, 55% of the Moon is Illuminated
Jun 29
Waning Gibbous
Jun 29
Last Quarter
Jul 8
New
Jul 15
First Quarter
Jul 22
Full

Hourly Weather History & Observations

Time (MDT) Temp. Dew Point Humidity Pressure Visibility Wind Dir Wind Speed Gust Speed Precip Events Conditions
12:53 AM 71.1 °F 46.0 °F 41% 30.05 in 10.0 mi South 3.5 mph - N/A   Clear
1:53 AM 73.0 °F 45.0 °F 37% 30.05 in 10.0 mi Calm Calm - N/A   Clear
2:53 AM 70.0 °F 45.0 °F 41% 30.06 in 10.0 mi SE 3.5 mph - N/A   Scattered Clouds
3:53 AM 68.0 °F 46.0 °F 45% 30.05 in 10.0 mi Calm Calm - N/A   Partly Cloudy
4:53 AM 64.9 °F 46.0 °F 50% 30.06 in 10.0 mi Calm Calm - N/A   Partly Cloudy
5:53 AM 64.0 °F 46.0 °F 52% 30.07 in 10.0 mi SSW 4.6 mph - N/A   Clear
6:53 AM 71.1 °F 46.9 °F 42% 30.08 in 10.0 mi SW 3.5 mph - N/A   Clear
7:53 AM 73.0 °F 48.0 °F 41% 30.08 in 10.0 mi Calm Calm - N/A   Clear
8:53 AM 75.9 °F 50.0 °F 40% 30.07 in 10.0 mi Calm Calm - N/A   Clear
9:53 AM 78.1 °F 52.0 °F 40% 30.06 in 10.0 mi Calm Calm - N/A   Clear
10:53 AM 81.0 °F 52.0 °F 36% 30.05 in 10.0 mi Calm Calm - N/A   Clear
11:53 AM 84.9 °F 51.1 °F 31% 30.03 in 10.0 mi Variable 4.6 mph - N/A   Clear
12:53 PM 89.1 °F 50.0 °F 26% 30.01 in 10.0 mi North 5.8 mph - N/A   Clear
1:53 PM 90.0 °F 50.0 °F 25% 29.98 in 10.0 mi Variable 4.6 mph - N/A   Clear
2:53 PM 93.0 °F 45.0 °F 19% 29.96 in 10.0 mi ENE 4.6 mph - N/A   Clear
3:53 PM 93.9 °F 43.0 °F 17% 29.92 in 10.0 mi NE 9.2 mph - N/A   Clear
4:53 PM 91.0 °F 37.0 °F 15% 29.91 in 10.0 mi East 5.8 mph - N/A   Clear
5:53 PM 93.0 °F 39.9 °F 16% 29.91 in 10.0 mi NNE 5.8 mph - N/A   Clear
6:53 PM 91.0 °F 39.9 °F 17% 29.90 in 10.0 mi West 5.8 mph - N/A   Clear
7:53 PM 88.0 °F 48.0 °F 25% 29.91 in 10.0 mi Variable 3.5 mph - N/A   Clear
8:53 PM 79.0 °F 51.1 °F 38% 29.97 in 10.0 mi WNW 23.0 mph 31.1 mph N/A   Clear
9:53 PM 75.9 °F 51.1 °F 42% 30.03 in 10.0 mi West 13.8 mph 24.2 mph N/A   Mostly Cloudy
10:53 PM 75.0 °F 48.9 °F 40% 30.05 in 10.0 mi West 17.3 mph 27.6 mph N/A   Scattered Clouds
11:53 PM 71.1 °F 53.1 °F 53% 30.08 in 10.0 mi North 9.2 mph - N/A   Overcast